📊 Raw Sensor Data
Showing records 48901 to 48925 of 85,109 total
| ID | Distance (ft) | Battery V | Battery A | Int Temp (°F) | Int Humid (%) | Ext Temp (°F) | Solar V | RSSI | SNR | Time Stamp |
|---|---|---|---|---|---|---|---|---|---|---|
| 36221 | -- | 4.03 | 0 | 75 | 40 | 67 | 5.10 | -88 | 7 | 03/28/2025 04:00 PM |
| 36220 | -- | 4.14 | 0 | 76 | 39 | 65 | 5.10 | -86 | 8 | 03/28/2025 03:45 PM |
| 36219 | -- | 4.03 | 0 | 75 | 39 | 66 | 5.10 | -81 | 8 | 03/28/2025 03:30 PM |
| 36218 | -- | 4.03 | 0 | 73 | 40 | 65 | 5.10 | -82 | 9 | 03/28/2025 03:15 PM |
| 36217 | -- | 4.04 | 0 | 72 | 40 | 65 | 5.10 | -84 | 8 | 03/28/2025 03:00 PM |
| 36216 | -- | 4.04 | 0 | 73 | 40 | 66 | 5.10 | -88 | 8 | 03/28/2025 02:45 PM |
| 36215 | -- | 4.03 | 0 | 72 | 40 | 64 | 5.10 | -87 | 7 | 03/28/2025 02:31 PM |
| 36214 | -- | 4.03 | 0 | 73 | 38 | 66 | 5.10 | -82 | 9 | 03/28/2025 02:00 PM |
| 36213 | -- | 4.10 | 0 | 72 | 39 | 65 | 5.10 | -87 | 7 | 03/28/2025 01:45 PM |
| 36212 | -- | 4.03 | 0 | 72 | 38 | 66 | 5.10 | -87 | 7 | 03/28/2025 01:30 PM |
| 36211 | -- | 4.03 | 0 | 71 | 39 | 64 | 5.10 | -87 | 7 | 03/28/2025 01:15 PM |
| 36210 | -- | 4.04 | 0 | 71 | 38 | 65 | 5.10 | -84 | 8 | 03/28/2025 01:00 PM |
| 36209 | -- | 4.03 | 0 | 70 | 39 | 66 | 5.10 | -86 | 7 | 03/28/2025 12:45 PM |
| 36208 | -- | 4.03 | 0 | 68 | 39 | 62 | 5.10 | -88 | 7 | 03/28/2025 12:31 PM |
| 36207 | -- | 4.03 | 0 | 67 | 40 | 62 | 5.10 | -88 | 7 | 03/28/2025 12:15 PM |
| 36206 | -- | 4.03 | 0 | 67 | 39 | 64 | 5.10 | -87 | 8 | 03/28/2025 12:01 PM |
| 36205 | -- | 4.03 | 0 | 66 | 39 | 64 | 5.10 | -84 | 9 | 03/28/2025 11:45 AM |
| 36204 | -- | 4.03 | 0 | 63 | 40 | 64 | 5.10 | -87 | 7 | 03/28/2025 11:30 AM |
| 36203 | 15.1 | 4.03 | 0 | 62 | 40 | 61 | 5.10 | -88 | 7 | 03/28/2025 11:15 AM |
| 36202 | 15.1 | 4.03 | 0 | 61 | 40 | 61 | 5.10 | -85 | 7 | 03/28/2025 11:00 AM |
| 36201 | 15.0 | 4.03 | 0 | 59 | 41 | 57 | 5.10 | -86 | 7 | 03/28/2025 10:45 AM |
| 36200 | 15.1 | 4.03 | 0 | 60 | 40 | 63 | 5.10 | -85 | 8 | 03/28/2025 10:30 AM |
| 36199 | 15.1 | 4.03 | 0 | 59 | 39 | 60 | 5.10 | -85 | 8 | 03/28/2025 10:15 AM |
| 36198 | 15.2 | 4.03 | 0 | 59 | 40 | 62 | 5.10 | -83 | 8 | 03/28/2025 10:00 AM |
| 36197 | 15.1 | 4.03 | 0 | 57 | 40 | 59 | 5.10 | -84 | 8 | 03/28/2025 09:45 AM |